Home > Weather > West Palm Beach > Past weeks

Flag for U.S.A. Weather for the Past 2 Weeks in West Palm Beach, Florida, U.S.A.

Now
53 °F

Clear.


Feels Like: 52 °F
Forecast: 53 / 72 °F
Wind: 5 mph from Northwest

Location: Palm Beach International Airport

Current Time: Feb 13, 2016 at 5:02:15 AM

Latest Report: Feb 13, 2016 at 3:53 AM


Visibility: 10 mi

Pressure: 30.18 "Hg

Humidity: 89%

Dew point: 50 °F

Location of West Palm BeachLocation

Historic Weather in West Palm Beach — Graph

°F

West Palm Beach Temperature Yesterday

Maximum temperature yesterday: 73 °F (at 12:53 PM)
Minimum temperature yesterday: 50 °F (at 1:53 AM)
Average temperature yesterday: 62 °F

High & Low Weather Summary for the Past Weeks

 TemperatureHumidityPressure
High91 °F (Feb 3, 12:53 PM)97% (Feb 2, 12:53 AM)30.35 "Hg (Feb 2, 12:53 AM)
Low42 °F (Feb 11, 4:53 AM)22% (Feb 11, 10:53 AM)29.89 "Hg (Jan 29, 3:57 AM)
Average65 °F68%30.11 "Hg
* Reported Jan 29 3:57 AM — Feb 13 3:53 AM, West Palm Beach, Weather by CustomWeather, © 2016

Note: Actual official high and low records may vary slightly from our data, if they occured in-between our weather recording intervals... More about our weather records

Advertising

West Palm Beach Weather History for the Previous 24 Hours

 ConditionsComfort  
Time TempWeatherWind HumidityBarometerVisibility
3:53 AM
Sat, Feb 13
53 °FClear.5 mph89%30.18 "Hg10 mi
2:53 AM51 °FClear.5 mph86%30.19 "Hg10 mi
1:53 AM55 °FClear.No wind77%30.20 "Hg10 mi
12:53 AM58 °FClear.3 mph72%30.21 "Hg10 mi
11:53 PM
Fri, Feb 12
59 °FClear.5 mph75%30.22 "Hg10 mi
10:53 PM60 °FClear.8 mph80%30.22 "Hg10 mi
9:53 PM61 °FClear.6 mph78%30.22 "Hg10 mi
8:53 PM64 °FClear.5 mph70%30.22 "Hg10 mi
7:53 PM66 °FClear.6 mph68%30.22 "Hg10 mi
6:53 PM67 °FPassing clouds.6 mph66%30.22 "Hg10 mi
5:53 PM69 °FPassing clouds.7 mph59%30.21 "Hg10 mi
4:53 PM70 °FScattered clouds.9 mph57%30.20 "Hg10 mi
3:53 PM73 °FScattered clouds.10 mph50%30.19 "Hg10 mi
2:53 PM73 °FScattered clouds.10 mph50%30.22 "Hg10 mi
1:53 PM73 °FScattered clouds.6 mph50%30.24 "Hg10 mi
12:53 PM73 °FScattered clouds.9 mph48%30.27 "Hg10 mi
11:53 AM72 °FPassing clouds.6 mph49%30.30 "Hg10 mi
10:53 AM69 °FPassing clouds.3 mph47%30.32 "Hg10 mi
9:53 AM67 °FPassing clouds.6 mph45%30.33 "Hg10 mi
8:53 AM61 °FPassing clouds.7 mph58%30.33 "Hg10 mi
7:53 AM54 °FPassing clouds.No wind72%30.32 "Hg10 mi
6:53 AM50 °FPassing clouds.3 mph74%30.30 "Hg10 mi
5:53 AM50 °FClear.No wind77%30.29 "Hg10 mi
Weather by CustomWeather, © 2016

See weather overviewHow to use our weather pages